Location: Bullenkuhlen
(53.7689°N, 9.7495°E)
Time: 23:28:23
(UTC+00:00)

STARLINK-1240 - Pass Details

Date: 09 April 2020
Orbit: 549 x 551 km, 53.0° (Epoch: 24 May)

Event Time Altitude Azimuth Distance (km) Brightness Sun altitude
Rises 18:40:00 0° 279° (W) 2,767 9.4 -4.7°
Reaches altitude 10° 18:42:15 10° 277° (W) 1,874 8.0 -5.1°
Maximum altitude 18:46:30 68° 195° (SSW) 619 3.9 -5.6°
Drops below altitude 10° 18:50:46 10° 112° (ESE) 1,883 5.6 -6.2°
Enters shadow 18:51:11 - 112° (ESE) 2,051 5.8 -6.3°
